CW9086 Weather Reports


time (UTC)temp
F
wind
direction
speed
knots
gust
knots
rain 1hr
in
rain 24hr
in
rain mn
in
humidity
%
barometer
mb
20260503230105 69 213 2.6 10.4 0.00 0.00 0.00 59 1008.0
20260503225604 70 211 4.3 10.4 0.00 0.00 0.00 57 1008.1
20260503225104 70 212 2.6 11.3 0.00 0.00 0.00 57 1008.1
20260503224105 72 212 2.6 7.8 0.00 0.00 0.00 54 1008.1
20260503223605 73 208 2.6 7.8 0.00 0.00 0.00 52 1008.1
20260503223105 74 215 1.7 7.8 0.00 0.00 0.00 52 1008.2
20260503222604 74 212 1.7 5.2 0.00 0.00 0.00 52 1008.2
20260503222104 75 214 1.7 7.0 0.00 0.00 0.00 52 1008.3
20260503221605 75 214 2.6 7.0 0.00 0.00 0.00 51 1008.3
20260503221105 75 205 1.7 5.2 0.00 0.00 0.00 52 1008.3
20260503220604 75 211 1.7 5.2 0.00 0.00 0.00 51 1008.2
20260503220104 75 212 0.9 5.2 0.00 0.00 0.00 53 1008.3
20260503215605 75 209 0.9 8.7 0.00 0.00 0.00 54 1008.3
20260503215105 75 213 1.7 8.7 0.00 0.00 0.00 53 1008.4
20260503214604 75 211 1.7 5.2 0.00 0.00 0.00 53 1008.4
20260503214105 75 211 1.7 5.2 0.00 0.00 0.00 52 1008.4
20260503213104 75 202 2.6 7.8 0.00 0.00 0.00 52 1008.5
20260503212606 76 212 2.6 7.0 0.00 0.00 0.00 51 1008.5
20260503211605 77 213 1.7 6.1 0.00 0.00 0.00 52 1008.6
20260503211106 78 211 1.7 6.1 0.00 0.00 0.00 49 1008.6
20260503210605 80 213 1.7 6.1 0.00 0.00 0.00 48 1008.6
20260503205605 81 214 0.9 2.6 0.00 0.00 0.00 48 1008.6
20260503205104 82 212 0.0 2.6 0.00 0.00 0.00 47 1008.5
20260503204604 82 212 0.9 2.6 0.00 0.00 0.00 47 1008.6
20260503204106 83 211 0.9 1.7 0.00 0.00 0.00 45 1008.7
20260503203104 85 195 0.9 2.6 0.00 0.00 0.00 44 1008.7
20260503202604 86 207 1.7 2.6 0.00 0.00 0.00 42 1008.7
20260503202104 87 214 1.7 4.3 0.00 0.00 0.00 37 1008.7
20260503201604 87 212 1.7 4.3 0.00 0.00 0.00 37 1008.8
20260503201105 87 210 0.9 4.3 0.00 0.00 0.00 39 1008.8
20260503200605 86 213 1.7 4.3 0.00 0.00 0.00 40 1008.9
20260503200106 86 214 0.9 2.6 0.00 0.00 0.00 39 1009.0
20260503195605 86 212 0.9 4.3 0.00 0.00 0.00 40 1009.1
20260503195105 85 213 1.7 4.3 0.00 0.00 0.00 40 1009.1
20260503194605 85 215 1.7 6.1 0.00 0.00 0.00 42 1009.1
20260503194105 85 207 1.7 7.8 0.00 0.00 0.00 39 1009.3
20260503193606 85 211 1.7 7.8 0.00 0.00 0.00 40 1009.3
20260503193105 85 216 0.9 5.2 0.00 0.00 0.00 40 1009.4
20260503192104 84 214 1.7 5.2 0.00 0.00 0.00 40 1009.5
20260503191604 84 216 0.9 6.1 0.00 0.00 0.00 40 1009.5
20260503190606 83 212 2.6 7.8 0.00 0.00 0.00 40 1009.6
20260503190105 83 213 1.7 6.1 0.00 0.00 0.00 41 1009.5
20260503185604 83 214 1.7 5.2 0.00 0.00 0.00 42 1009.6
20260503184105 82 215 1.7 7.0 0.00 0.00 0.00 42 1009.6
20260503183605 82 212 1.7 8.7 0.00 0.00 0.00 41 1009.6
20260503183108 82 214 2.6 8.7 0.00 0.00 0.00 41 1009.6
20260503182605 82 211 2.6 8.7 0.00 0.00 0.00 42 1009.7
20260503182104 82 213 2.6 7.8 0.00 0.00 0.00 41 1009.7
20260503181606 82 213 0.9 7.0 0.00 0.00 0.00 42 1009.7
20260503180606 81 216 0.9 5.2 0.00 0.00 0.00 44 1009.8
20260503180105 81 212 1.7 5.2 0.00 0.00 0.00 43 1009.8
20260503175604 81 214 0.9 4.3 0.00 0.00 0.00 43 1009.9
20260503175104 81 214 0.9 5.2 0.00 0.00 0.00 44 1009.9
20260503174604 81 213 1.7 5.2 0.00 0.00 0.00 45 1009.9
20260503174104 80 216 1.7 4.3 0.00 0.00 0.00 48 1010.0
20260503173605 80 213 0.9 4.3 0.00 0.00 0.00 45 1010.0
20260503173104 79 213 0.9 4.3 0.00 0.00 0.00 46 1010.0
20260503172604 79 213 1.7 4.3 0.00 0.00 0.00 46 1009.9
20260503172104 79 212 0.9 4.3 0.00 0.00 0.00 47 1010.0
20260503171104 79 212 0.9 5.2 0.00 0.00 0.00 47 1010.0
20260503170604 78 211 1.7 5.2 0.00 0.00 0.00 46 1010.0
20260503170104 78 212 0.0 5.2 0.00 0.00 0.00 50 1010.0
20260503150604 67 213 0.9 4.3 0.00 0.00 0.00 65 1010.3
20260503150103 66 213 0.9 4.3 0.00 0.00 0.00 65 1010.3
20260503131103 55 216 0.9 2.6 0.00 0.00 0.00 87 1009.9
20260503130605 55 215 0.0 2.6 0.00 0.00 0.00 88 1009.9
20260503130103 54 216 0.0 2.6 0.00 0.00 0.00 89 1009.9
20260503120105 53 212 0.0 2.6 0.00 0.00 0.00 91 1010.0
20260503110603 52 212 0.0 2.6 0.00 0.00 0.00 91 1010.3
20260503110104 52 212 0.0 2.6 0.00 0.00 0.00 91 1010.3
20260503100104 46 212 0.0 0.0 0.00 0.00 0.00 89 1010.8
20260503081605 47 212 0.0 0.0 0.00 0.00 0.00 89 1011.5
20260503081105 47 212 0.0 0.0 0.00 0.00 0.00 89 1011.6
20260503080605 47 212 0.0 0.0 0.00 0.00 0.00 89 1011.6
20260503080105 47 212 0.0 0.0 0.00 0.00 0.00 89 1011.5
20260503072606 47 212 0.0 0.0 0.00 0.00 0.00 88 1011.8
20260503072106 47 212 0.0 0.0 0.00 0.00 0.00 88 1011.8
20260503071109 47 212 0.0 0.0 0.00 0.00 0.00 89 1011.9
20260503070604 48 212 0.0 0.0 0.00 0.00 0.00 89 1011.9
20260503070105 48 212 0.0 0.0 0.00 0.00 0.00 88 1012.0
20260503060106 50 212 0.0 0.0 0.00 0.00 0.00 89 1012.4
20260503055105 50 212 0.0 0.0 0.00 0.00 0.00 89 1012.3
20260503054607 50 212 0.0 0.0 0.00 0.00 0.00 89 1012.3
20260503054105 50 212 0.0 0.0 0.00 0.00 0.00 89 1012.4
20260503053606 50 212 0.0 0.9 0.00 0.00 0.00 89 1012.4
20260503053105 50 212 0.0 0.9 0.00 0.00 0.00 89 1012.4
20260503052605 50 212 0.0 0.0 0.00 0.00 0.00 89 1012.5
20260503052106 50 212 0.0 0.0 0.00 0.00 0.00 89 1012.4
20260503051605 50 212 0.0 0.9 0.00 0.00 0.00 89 1012.4
20260503051104 51 212 0.0 0.9 0.00 0.00 0.00 89 1012.3
20260503050606 51 212 0.0 0.9 0.00 0.00 0.00 89 1012.3
20260503050105 51 212 0.0 0.9 0.00 0.00 0.00 89 1012.3
20260503045606 51 212 0.0 2.6 0.00 0.00 0.00 88 1012.3
20260503045104 51 212 0.0 2.6 0.00 0.00 0.00 88 1012.3
20260503044606 51 212 0.0 1.7 0.00 0.00 0.00 88 1012.3
20260503043604 51 212 0.0 1.7 0.00 0.00 0.00 88 1012.1
20260503043105 51 212 0.0 1.7 0.00 0.00 0.00 88 1012.1
20260503042604 51 212 0.0 2.6 0.00 0.00 0.00 88 1012.1
20260503042104 51 212 0.0 2.6 0.00 0.00 0.00 88 1012.0
20260503041104 51 212 0.0 2.6 0.00 0.00 0.00 88 1011.8
20260503040106 51 212 0.9 2.6 0.00 0.00 0.00 88 1011.6
20260503035605 51 212 0.9 2.6 0.00 0.00 0.00 88 1011.5
20260503034605 51 197 0.9 2.6 0.00 0.00 0.00 87 1011.5
20260503034105 51 212 0.9 2.6 0.00 0.00 0.00 87 1011.3
20260503033104 52 213 0.9 2.6 0.00 0.00 0.00 87 1011.3
20260503032604 52 212 0.0 2.6 0.00 0.00 0.00 87 1011.3
20260503032104 52 212 0.9 2.6 0.00 0.00 0.00 86 1011.3
20260503031605 52 212 0.0 2.6 0.00 0.00 0.00 86 1011.3
20260503031104 52 213 0.9 5.2 0.00 0.00 0.00 86 1011.3
20260503030604 52 211 0.9 5.2 0.00 0.00 0.00 86 1011.3
20260503030105 53 211 1.7 5.2 0.00 0.00 0.00 85 1011.2
20260503025604 53 212 0.0 2.6 0.00 0.00 0.00 85 1011.3
20260503025104 53 212 0.0 4.3 0.00 0.00 0.00 85 1011.3
20260503024604 53 212 1.7 4.3 0.00 0.00 0.00 84 1011.3
20260503024105 53 212 0.9 5.2 0.00 0.00 0.00 84 1011.2
20260503023606 53 212 1.7 5.2 0.00 0.00 0.00 84 1011.4
20260503023105 54 213 0.0 2.6 0.00 0.00 0.00 84 1011.4
20260503022605 54 213 0.9 2.6 0.00 0.00 0.00 83 1011.4
20260503022106 54 212 0.9 7.8 0.00 0.00 0.00 82 1011.3
20260503021104 55 213 0.9 4.3 0.00 0.00 0.00 81 1011.5
20260503020105 56 212 0.9 2.6 0.00 0.00 0.00 81 1011.5
20260503015605 56 210 0.0 4.3 0.00 0.00 0.00 80 1011.5
20260503015105 57 213 1.7 4.3 0.00 0.00 0.00 79 1011.5
20260503014604 57 212 0.9 7.8 0.00 0.00 0.00 79 1011.5
20260503014105 57 214 1.7 7.8 0.00 0.00 0.00 79 1011.5
20260503013604 58 213 0.9 5.2 0.00 0.00 0.00 78 1011.4
20260503013105 58 214 1.7 5.2 0.00 0.00 0.00 78 1011.6
20260503012605 58 210 1.7 5.2 0.00 0.00 0.00 78 1011.5
20260503012105 59 213 0.9 6.1 0.00 0.00 0.00 78 1011.5
20260503011605 59 209 2.6 6.1 0.00 0.00 0.00 77 1011.5
20260503011104 59 213 0.9 4.3 0.00 0.00 0.00 77 1011.5
20260503010106 59 212 0.9 2.6 0.00 0.00 0.00 78 1011.6
20260503005105 59 212 1.7 5.2 0.00 0.00 0.00 77 1011.7
20260503004605 59 212 1.7 4.3 0.00 0.00 0.00 77 1011.6
20260503004108 59 212 0.9 7.0 0.00 0.00 0.00 77 1011.7
20260503003605 59 210 1.7 7.0 0.00 0.00 0.00 77 1011.8
20260503002605 60 207 0.9 7.0 0.00 0.00 0.00 77 1011.8
20260503002105 60 213 1.7 7.0 0.00 0.00 0.00 76 1011.8
20260503001605 60 212 1.7 4.3 0.00 0.00 0.00 77 1011.8
20260503001105 60 213 0.0 5.2 0.00 0.00 0.00 77 1011.9
20260503000604 60 213 0.9 5.2 0.00 0.00 0.00 77 1011.9
20260502234604 59 212 2.6 7.0 0.00 0.00 0.00 77 1011.8
20260502234104 60 211 2.6 7.8 0.00 0.00 0.00 77 1011.8
20260502233105 60 214 1.7 8.7 0.00 0.00 0.00 76 1011.9
20260502232606 60 213 2.6 8.7 0.00 0.00 0.00 76 1011.9
20260502232105 60 210 2.6 7.0 0.00 0.00 0.00 76 1012.0
20260502231605 60 213 2.6 7.0 0.00 0.00 0.00 76 1012.3
20260502231104 60 214 1.7 7.8 0.00 0.00 0.00 77 1012.5
20260502230605 60 210 1.7 8.7 0.00 0.00 0.00 77 1012.7